Location: City of Moscow
(46.7306°N, 116.9989°W)
Time: 14:39:14
(UTC+00:00)

CUBEBUG 2 - Pass Details

Date: 22 April 2026
Orbit: 546 x 628 km, 97.9° (Epoch: 15 May)

Event Time Altitude Azimuth Distance (km) Brightness Sun altitude
Rises 11:26:38 0° 359° (N) 2,852 ? -13.2°
Reaches altitude 10° 11:29:19 10° 342° (NNW) 1,928 ? -12.9°
Maximum altitude 11:32:15 19° 297° (WNW) 1,414 ? -12.4°
Enters shadow 11:34:01 15° 266° (W) 1,602 ? -12.2°
